• In Österreich
  • Länderverzeichnis
  • Für 7 Tage
  • Wassertemperatur
  • Satellitenkarten
  • Wetterkarte
  • News
  • Widgets
  • user-avatar
    Anmelden

    Stündliche Wetter Chyzhykiv

    Heute, 16 Oktober, Dienstag

    Zeit Temperatur Niederschläge Wind Luftdruck Luftfeuchtigkeit
    00:00 +11°C° 0 mm 3 m/S 746 mmHg 57%
    01:00 +10°C° 0 mm 3 m/S 746 mmHg 57%
    02:00 +10°C° 0 mm 3 m/S 746 mmHg 59%
    03:00 +10°C° 0 mm 3 m/S 746 mmHg 59%
    04:00 +10°C° 0 mm 3 m/S 746 mmHg 60%
    05:00 +9°C° 0 mm 3 m/S 746 mmHg 60%
    06:00 +10°C° 0 mm 3 m/S 746 mmHg 61%
    07:00 +10°C° 0 mm 3 m/S 746 mmHg 61%
    08:00 +10°C° 0 mm 3 m/S 746 mmHg 60%
    09:00 +12°C° 0 mm 3 m/S 746 mmHg 55%
    10:00 +14°C° 0 mm 3 m/S 746 mmHg 50%
    11:00 +18°C° 0 mm 3 m/S 747 mmHg 45%
    12:00 +19°C° 0 mm 3 m/S 746 mmHg 43%
    13:00 +20°C° 0 mm 3 m/S 746 mmHg 42%
    14:00 +21°C° 0 mm 3 m/S 746 mmHg 41%
    15:00 +19°C° 0 mm 2 m/S 746 mmHg 47%
    16:00 +18°C° 0 mm 2 m/S 746 mmHg 52%
    17:00 +16°C° 0 mm 2 m/S 746 mmHg 58%
    18:00 +15°C° 0 mm 2 m/S 746 mmHg 60%
    19:00 +14°C° 0 mm 2 m/S 746 mmHg 61%
    20:00 +13°C° 0 mm 2 m/S 746 mmHg 63%
    21:00 +13°C° 0 mm 2 m/S 746 mmHg 64%
    22:00 +12°C° 0 mm 2 m/S 746 mmHg 64%
    23:00 +12°C° 0 mm 2 m/S 746 mmHg 65%

    Morgen, 17 Oktober, Mittwoch

    Zeit Temperatur Niederschläge Wind Luftdruck Luftfeuchtigkeit
    00:00 +12°C° 0 mm 2 m/S 746 mmHg 66%
    01:00 +10°C° 0 mm 2 m/S 746 mmHg 67%
    02:00 +10°C° 0 mm 2 m/S 746 mmHg 68%
    03:00 +11°C° 0 mm 1 m/S 746 mmHg 69%
    04:00 +10°C° 0 mm 1 m/S 746 mmHg 70%
    05:00 +10°C° 0 mm 1 m/S 746 mmHg 71%
    06:00 +10°C° 0 mm 1 m/S 746 mmHg 71%
    07:00 +11°C° 0 mm 1 m/S 746 mmHg 71%
    08:00 +10°C° 0 mm 2 m/S 746 mmHg 71%
    09:00 +13°C° 0 mm 2 m/S 746 mmHg 64%
    10:00 +15°C° 0 mm 2 m/S 746 mmHg 58%
    11:00 +17°C° 0 mm 2 m/S 746 mmHg 51%
    12:00 +19°C° 0 mm 3 m/S 746 mmHg 50%
    13:00 +20°C° 0 mm 3 m/S 746 mmHg 48%
    14:00 +21°C° 0 mm 3 m/S 745 mmHg 47%
    15:00 +20°C° 0 mm 3 m/S 745 mmHg 53%
    16:00 +19°C° 0 mm 2 m/S 745 mmHg 58%
    17:00 +17°C° 0 mm 2 m/S 744 mmHg 64%
    18:00 +16°C° 0 mm 2 m/S 745 mmHg 68%
    19:00 +15°C° 0 mm 2 m/S 745 mmHg 71%
    20:00 +14°C° 0 mm 2 m/S 745 mmHg 74%
    21:00 +14°C° 0 mm 2 m/S 745 mmHg 75%
    22:00 +13°C° 0 mm 2 m/S 745 mmHg 76%
    23:00 +13°C° 0 mm 2 m/S 744 mmHg 76%

    übermorgen, 18 Oktober, Donnerstag

    Zeit Temperatur Niederschläge Wind Luftdruck Luftfeuchtigkeit
    00:00 +13°C° 0 mm 2 m/S 744 mmHg 76%
    01:00 +12°C° 0 mm 2 m/S 744 mmHg 77%
    02:00 +12°C° 0 mm 2 m/S 744 mmHg 77%
    03:00 +12°C° 0 mm 2 m/S 744 mmHg 78%
    04:00 +10°C° 0 mm 2 m/S 744 mmHg 80%
    05:00 +10°C° 0 mm 2 m/S 744 mmHg 81%
    06:00 +10°C° 0 mm 2 m/S 744 mmHg 81%
    07:00 +10°C° 0 mm 2 m/S 744 mmHg 80%
    08:00 +12°C° 0 mm 2 m/S 744 mmHg 80%
    09:00 +14°C° 0 mm 2 m/S 744 mmHg 73%
    10:00 +16°C° 0 mm 2 m/S 744 mmHg 65%
    11:00 +18°C° 0 mm 2 m/S 744 mmHg 58%
    12:00 +19°C° 0 mm 2 m/S 743 mmHg 54%
    13:00 +20°C° 0 mm 2 m/S 743 mmHg 51%
    14:00 +20°C° 0 mm 2 m/S 743 mmHg 48%
    15:00 +20°C° 0 mm 1 m/S 743 mmHg 52%
    16:00 +19°C° 0 mm 1 m/S 743 mmHg 56%
    17:00 +18°C° 0 mm 1 m/S 742 mmHg 60%
    18:00 +16°C° 0 mm 1 m/S 742 mmHg 63%
    19:00 +15°C° 0 mm 1 m/S 743 mmHg 65%
    20:00 +14°C° 0 mm 1 m/S 743 mmHg 67%
    21:00 +13°C° 0 mm 1 m/S 743 mmHg 68%
    22:00 +13°C° 0 mm 1 m/S 743 mmHg 69%
    23:00 +12°C° 0 mm 1 m/S 743 mmHg 70%

    19 Oktober, Freitag

    Zeit Temperatur Niederschläge Wind Luftdruck Luftfeuchtigkeit
    00:00 +12°C° 0 mm 1 m/S 743 mmHg 72%
    01:00 +11°C° 0 mm 1 m/S 743 mmHg 73%
    02:00 +11°C° 0 mm 1 m/S 743 mmHg 75%
    03:00 +11°C° 0 mm 1 m/S 743 mmHg 76%
    04:00 +10°C° 0 mm 1 m/S 743 mmHg 78%
    05:00 +10°C° 0 mm 1 m/S 743 mmHg 79%
    06:00 +10°C° 0 mm 1 m/S 743 mmHg 79%
    07:00 +10°C° 0 mm 1 m/S 743 mmHg 78%
    08:00 +11°C° 0 mm 1 m/S 743 mmHg 78%
    09:00 +13°C° 0 mm 2 m/S 743 mmHg 72%
    10:00 +14°C° 0 mm 2 m/S 743 mmHg 66%
    11:00 +16°C° 0 mm 2 m/S 743 mmHg 60%
    12:00 +17°C° 0 mm 2 m/S 743 mmHg 59%
    13:00 +18°C° 0 mm 3 m/S 743 mmHg 58%
    14:00 +18°C° 0 mm 3 m/S 743 mmHg 57%
    15:00 +17°C° 0 mm 3 m/S 743 mmHg 63%
    16:00 +16°C° 0 mm 2 m/S 743 mmHg 68%
    17:00 +15°C° 0 mm 2 m/S 743 mmHg 73%
    18:00 +14°C° 0.5 mm 2 m/S 743 mmHg 78%
    19:00 +13°C° 0.5 mm 2 m/S 743 mmHg 82%
    20:00 +12°C° 0.5 mm 2 m/S 743 mmHg 86%
    21:00 +12°C° 0.2 mm 2 m/S 743 mmHg 88%
    22:00 +12°C° 0.2 mm 2 m/S 744 mmHg 89%
    23:00 +10°C° 0.2 mm 2 m/S 744 mmHg 90%

    20 Oktober, Samstag

    Zeit Temperatur Niederschläge Wind Luftdruck Luftfeuchtigkeit
    00:00 +10°C° 0 mm 2 m/S 744 mmHg 91%
    01:00 +10°C° 0 mm 2 m/S 744 mmHg 92%
    02:00 +9°C° 0 mm 2 m/S 744 mmHg 92%
    03:00 +9°C° 0 mm 2 m/S 744 mmHg 93%
    04:00 +9°C° 0 mm 2 m/S 744 mmHg 93%
    05:00 +9°C° 0 mm 2 m/S 744 mmHg 93%
    06:00 +9°C° 0 mm 2 m/S 744 mmHg 92%
    07:00 +9°C° 0 mm 2 m/S 744 mmHg 92%
    08:00 +9°C° 0 mm 2 m/S 744 mmHg 91%
    09:00 +12°C° 0 mm 2 m/S 744 mmHg 87%
    10:00 +13°C° 0 mm 2 m/S 745 mmHg 82%
    11:00 +13°C° 0 mm 3 m/S 745 mmHg 78%
    12:00 +13°C° 0.1 mm 3 m/S 744 mmHg 79%
    13:00 +13°C° 0.1 mm 3 m/S 744 mmHg 79%
    14:00 +13°C° 0.1 mm 3 m/S 744 mmHg 80%
    15:00 +12°C° 0.1 mm 3 m/S 744 mmHg 82%
    16:00 +13°C° 0.1 mm 2 m/S 744 mmHg 83%
    17:00 +12°C° 0.1 mm 2 m/S 744 mmHg 85%
    18:00 +12°C° 0.1 mm 2 m/S 744 mmHg 85%
    19:00 +10°C° 0.1 mm 2 m/S 744 mmHg 86%
    20:00 +10°C° 0.1 mm 2 m/S 744 mmHg 86%
    21:00 +9°C° 0 mm 2 m/S 744 mmHg 86%
    22:00 +9°C° 0 mm 2 m/S 744 mmHg 85%
    23:00 +8°C° 0 mm 2 m/S 744 mmHg 85%

    21 Oktober, Sonntag

    Zeit Temperatur Niederschläge Wind Luftdruck Luftfeuchtigkeit
    00:00 +7°C° 0 mm 2 m/S 744 mmHg 84%
    01:00 +7°C° 0 mm 2 m/S 744 mmHg 84%
    02:00 +8°C° 0 mm 1 m/S 744 mmHg 83%
    03:00 +7°C° 0 mm 1 m/S 744 mmHg 83%
    04:00 +7°C° 0 mm 1 m/S 745 mmHg 84%
    05:00 +6°C° 0 mm 2 m/S 745 mmHg 84%
    06:00 +6°C° 0 mm 2 m/S 745 mmHg 83%
    07:00 +6°C° 0 mm 2 m/S 745 mmHg 82%
    08:00 +6°C° 0 mm 2 m/S 745 mmHg 82%
    09:00 +8°C° 0 mm 2 m/S 746 mmHg 75%
    10:00 +9°C° 0 mm 2 m/S 746 mmHg 68%
    11:00 +10°C° 0 mm 2 m/S 746 mmHg 61%
    12:00 +11°C° 0 mm 3 m/S 746 mmHg 58%
    13:00 +11°C° 0 mm 3 m/S 746 mmHg 55%
    14:00 +12°C° 0 mm 3 m/S 746 mmHg 52%
    15:00 +11°C° 0 mm 3 m/S 746 mmHg 56%
    16:00 +10°C° 0 mm 2 m/S 746 mmHg 59%
    17:00 +9°C° 0 mm 2 m/S 746 mmHg 63%
    18:00 +8°C° 0 mm 2 m/S 746 mmHg 66%
    19:00 +7°C° 0 mm 2 m/S 746 mmHg 69%
    20:00 +6°C° 0 mm 2 m/S 746 mmHg 72%
    21:00 +6°C° 0 mm 1 m/S 747 mmHg 74%
    22:00 +6°C° 0 mm 1 m/S 747 mmHg 75%
    23:00 +5°C° 0 mm 1 m/S 747 mmHg 77%
    Mehr zeigen